Regional Weather Roundup
Issued by NWS

Home | Current Version | Previous Version | Graphics & Text | Print | Product List | Glossary On
Versions: 1 2 3 4 5 6 7 8 9 10 11 12 13 14 15 16 17 18 19 20 21 22 23 24 25 26
000
ASUS45 KPSR 271610
RWRAZ

ARIZONA HOURLY REGIONAL WEATHER ROUNDUP
NATIONAL WEATHER SERVICE PHOENIX AZ
900 AM MST FRI MAY 27 2016

NOTE: FAIR INDICATES FEW OR NO CLOUDS BELOW 12,000 FEET WITH NO
SIGNIFICANT WEATHER AND/OR OBSTRUCTIONS TO VISIBILITY.

AZZ001>003-036-271700-
NORTHWEST ARIZONA

CITY           SKY/WX    TMP DP  RH WIND       PRES   REMARKS
KINGMAN        SUNNY     75  30  19 SW10      29.96S
$$

AZZ004>008-015-016-018-271700-
NORTH CENTRAL ARIZONA

CITY           SKY/WX    TMP DP  RH WIND       PRES   REMARKS
GRAND CANYON   SUNNY     60  29  30 VRB7      30.08F
WILLIAMS       SUNNY     59  28  31 W10G16    30.17S
PRESCOTT       SUNNY     65  29  25 CALM      30.04S
FLAGSTAFF      SUNNY     56  29  35 VRB5      30.10S
PAYSON         SUNNY     66  27  22 VRB7G13   30.06S
PAGE           SUNNY     65  35  33 VRB3      29.96F
$$

AZZ009>014-017-271700-
NORTHEAST ARIZONA

CITY           SKY/WX    TMP DP  RH WIND       PRES   REMARKS
WINSLOW        SUNNY     67  29  24 VRB7      30.01S
SAINT JOHNS    SUNNY     62  29  28 NW10      30.02S
WINDOW ROCK    SUNNY     61  30  31 W9        30.03R
SHOW LOW       SUNNY     57  27  30 W7G17     30.08S
$$

AZZ023-271700-
GREATER PHOENIX AREA

CITY           SKY/WX    TMP DP  RH WIND       PRES   REMARKS
PHOENIX        SUNNY     76  34  21 CALM      29.87F
BUCKEYE        SUNNY     75  39  27 SE3       29.89F
GLENDALE       SUNNY     77  37  24 S6        29.89S
LUKE AFB       SUNNY     77  36  22 NE2       29.87S
DEER VALLEY    SUNNY     75  35  23 SE5       29.89S
SCOTTSDALE     SUNNY     76  32  20 S5        29.90S
MESA-GATEWAY   SUNNY     73  34  23 SE5       29.90S
CHANDLER       SUNNY     75  34  22 CALM      29.89S
$$

AZZ027-028-271700-
SOUTHWEST MARICOPA COUNTY AND PINAL COUNTY

CITY           SKY/WX    TMP DP  RH WIND       PRES   REMARKS
CASA GRANDE    SUNNY     73  34  23 CALM      29.91S
GILA BEND      SUNNY     78  38  23 VRB3      29.87S
$$

AZZ503-504-507>509-271700-
SOUTHEAST ARIZONA

CITY           SKY/WX    TMP DP  RH WIND       PRES   REMARKS
TUCSON         SUNNY     72  27  18 SW3       29.97S
DAVIS-MONTHAN  SUNNY     72  28  19 CALM      29.95S
RYAN FIELD     SUNNY     72  28  20 CALM      29.96S
NOGALES        SUNNY     71  28  20 VRB5      29.99S
SIERRA VISTA   SUNNY     66  25  21 NW2       30.04S
DOUGLAS        SUNNY     68  24  19 CALM      30.01F
SAFFORD        SUNNY     73  27  18 W8        29.95S
$$

AZZ020-021-025-026-031-271700-
SOUTHWEST ARIZONA

CITY           SKY/WX    TMP DP  RH WIND       PRES   REMARKS
YUMA           SUNNY     79  45  29 S6        29.85S
$$

CAZ031-033-041-043-047-048-061-271700-
SOUTHERN CALIFORNIA

CITY           SKY/WX    TMP DP  RH WIND       PRES   REMARKS
DOWNTOWN L.A.  CLOUDY    63  55  75 CALM      29.95R
L.A. AIRPORT   CLOUDY    63  54  72 E3        29.96S
SAN DIEGO      PTSUNNY   63  55  77 W7        29.96S
BURBANK        MOSUNNY   61  53  75 SW3       29.95R
ONTARIO        MOSUNNY   63  52  67 SW7       29.94S
RIVERSIDE      MOSUNNY   63  52  67 CALM      29.94F
PALM SPRINGS   MOSUNNY   75  48  38 CALM      29.84S
EL CENTRO NAS  SUNNY     79  48  33 NW3       29.85S
IMPERIAL       SUNNY     79  50  36 NW5       29.83S
BLYTHE         SUNNY     79  47  32 CALM      29.85S
NEEDLES        SUNNY     81  34  18 VRB3      29.85S
$$

NVZ020-UTZ003-271700-
SOUTHERN NEVADA-UTAH

CITY           SKY/WX    TMP DP  RH WIND       PRES   REMARKS
LAS VEGAS      MOSUNNY   76  33  21 NE5       29.87S
SALT LAKE CITY MOSUNNY   64  40  41 VRB5      29.97F
$$

NMZ009-TXZ055-271700-
NEW MEXICO-WEST TEXAS

CITY           SKY/WX    TMP DP  RH WIND       PRES   REMARKS
ALBUQUERQUE    MOSUNNY   61  29  29 VRB3      29.97S
EL PASO        SUNNY     72  23  16 W13       29.95S
$$


........................KEY........................
SKY/WX - SKY CONDITION/WEATHER
TMP    - TEMPERATURE IN FAHRENHEIT
DP     - DEW POINT IN FAHRENHEIT
RH     - RELATIVE HUMIDITY IN PERCENT
WIND   - DIRECTION AND SPEED IN MILES PER HOUR (MPH)
VRB    - VARIABLE WIND DIRECTION
PRES   - MEAN SEA LEVEL PRESSURE IN INCHES OF MERCURY
         F - FALLING PRESSURE   R - RISING PRESSURE
         S - STEADY PRESSURE
VSB    - VISIBILITY IN MILES
HX     - HEAT INDEX IN FAHRENHEIT
WCI    - WIND CHILL INDEX IN FAHRENHEIT
TC     - TEMPERATURE IN CELSIUS WHICH IS ALSO KNOWN AS
         TEMPERATURE IN CENTIGRADE
AFB    - AIR FORCE BASE
         LUKE AFB IS LUKE AIR FORCE BASE
         DAVIS-MONTHAN IS DAVIS-MONTHAN AIR FORCE BASE
NAS    - NAVAL AIR STATION
         EL CENTRO NAS IS EL CENTRO NAVAL AIR STATION
N/A    - NOT AVAILABLE





USA.gov is the U.S. government's official web portal to all federal, state and local government web resources and services.